カタログに戻る

STARLINK-34307

運用中通信VLEO
NORAD 64489·PAYLOAD·🇺🇸 United States

打ち上げ Jun 23, 2025 から Cape Canaveral Space Force Station

Loading…

次のパス (今後24時間)

TLE

最新Source: CelesTrak SupGP

元期: Sep 15, 2026, 03:05 UTC

1 64489C 25133T   26258.12895833  .00042110  00000+0  12440-2 0  2585
2 64489  53.1591 316.4939 0001028  90.5991  55.8702 15.34372489    10

AllMySatでSTARLINK-34307をリアルタイム追跡

Download on the App Store